Voltar ao catálogo

NOAA 17 DEB

AtivoSSO
NORAD 48738·DEBRIS·🇺🇸 United States

Lançado Jun 24, 2002 de Vandenberg Space Force Base

Loading…

Próximas Passagens (próximas 24 horas)

TLE

AtualizadoSource: Space-Track

Época: Sep 14, 2026, 05:28 UTC

1 48738U 02032BX  26257.22781695  .00001685  00000-0  76372-3 0  9997
2 48738  98.7281 175.5709 0090002 191.7455 168.1624 14.21123037282233

Acompanhe NOAA 17 DEB em tempo real com AllMySat

Download on the App Store